FHLDF LGKM-LGKM

Flight info

Callsign FHLDF
Flight time N/A
Altitude 5000
Route ROUPOL LOUTRA AMALA KERAMOTI PONTOL KAVALA
Aircraft DA42/L-SBDGRY/S

Departure

Time 2026-04-30 14:47
Airport Kavala Amygdaleon Lydia Airfield (LGKM)

Arrival

Time N/A
Airport Kavala Amygdaleon Lydia Airfield (LGKM)
Time Latitude Longitude Altitude Speed Heading
2026-04-30 14:38 40.97073 24.34628 208 ft 0 kts 319°
2026-04-30 14:42 40.97074 24.34627 208 ft 3 kts 301°
2026-04-30 14:42 40.97086 24.34579 212 ft 5 kts 315°
2026-04-30 14:42 40.97131 24.34527 207 ft 20 kts 321°
2026-04-30 14:43 40.97246 24.34400 209 ft 20 kts 320°
2026-04-30 14:43 40.97341 24.34296 209 ft 15 kts 323°
2026-04-30 14:43 40.97408 24.34218 209 ft 11 kts 322°
2026-04-30 14:43 40.97446 24.34154 208 ft 8 kts 279°
2026-04-30 14:44 40.97450 24.34096 209 ft 7 kts 274°
2026-04-30 14:44 40.97459 24.33965 217 ft 15 kts 307°
2026-04-30 14:44 40.97525 24.33871 209 ft 12 kts 318°
2026-04-30 14:44 40.97583 24.33809 210 ft 9 kts 324°
2026-04-30 14:45 40.97629 24.33763 210 ft 8 kts 323°
2026-04-30 14:45 40.97666 24.33718 214 ft 7 kts 319°
2026-04-30 14:45 40.97700 24.33680 208 ft 5 kts 257°
2026-04-30 14:45 40.97678 24.33689 210 ft 11 kts 135°
2026-04-30 14:46 40.97456 24.33956 215 ft 70 kts 139°
2026-04-30 14:46 40.97029 24.34465 288 ft 92 kts 135°
2026-04-30 14:46 40.96542 24.35076 504 ft 98 kts 141°
2026-04-30 14:46 40.95887 24.35123 766 ft 106 kts 207°
2026-04-30 14:47 40.95455 24.34281 1025 ft 115 kts 243°
2026-04-30 14:47 40.95224 24.33243 1294 ft 123 kts 269°
2026-04-30 14:47 40.95545 24.32212 1640 ft 117 kts 312°
2026-04-30 14:47 40.96083 24.31450 2000 ft 117 kts 310°
2026-04-30 14:48 40.96476 24.30503 2248 ft 124 kts 304°
2026-04-30 14:48 40.97013 24.29676 2650 ft 113 kts 310°
2026-04-30 14:48 40.97494 24.28894 3002 ft 110 kts 309°
2026-04-30 14:48 40.98146 24.28233 3072 ft 130 kts 345°
2026-04-30 14:49 40.99081 24.28334 3030 ft 146 kts 26°
2026-04-30 14:49 40.99926 24.29143 3065 ft 154 kts 48°
2026-04-30 14:49 41.00534 24.30316 3070 ft 158 kts 72°
2026-04-30 14:49 41.00384 24.31680 3077 ft 161 kts 137°
2026-04-30 14:50 40.98494 24.33497 2816 ft 148 kts 136°
2026-04-30 14:50 40.97807 24.34344 2938 ft 124 kts 135°
2026-04-30 14:51 40.96557 24.35490 3062 ft 109 kts 175°
2026-04-30 14:51 40.95850 24.35143 3056 ft 113 kts 220°
2026-04-30 14:51 40.95561 24.33159 3063 ft 115 kts 275°
2026-04-30 14:52 40.95640 24.32106 3066 ft 115 kts 275°
2026-04-30 14:52 40.95628 24.30022 3065 ft 114 kts 239°
2026-04-30 14:52 40.95165 24.29204 3154 ft 111 kts 226°
2026-04-30 14:53 40.94014 24.27412 3439 ft 141 kts 227°
2026-04-30 14:53 40.93355 24.26410 3638 ft 143 kts 227°
2026-04-30 14:54 40.92052 24.24480 4198 ft 138 kts 227°
2026-04-30 14:54 40.90614 24.22958 4559 ft 140 kts 211°
2026-04-30 14:55 40.88819 24.21587 4566 ft 157 kts 211°
2026-04-30 14:55 40.87863 24.20862 4564 ft 160 kts 210°
2026-04-30 14:55 40.85908 24.19381 4562 ft 163 kts 210°
2026-04-30 14:56 40.83859 24.18057 4565 ft 163 kts 203°
2026-04-30 14:56 40.81925 24.16993 4558 ft 138 kts 203°
2026-04-30 14:57 40.81053 24.16518 4561 ft 134 kts 203°
2026-04-30 14:57 40.79304 24.15415 4572 ft 144 kts 212°
2026-04-30 14:58 40.77577 24.14023 4566 ft 147 kts 212°
2026-04-30 14:58 40.76705 24.13320 4562 ft 147 kts 212°
2026-04-30 14:58 40.74968 24.11923 4562 ft 145 kts 212°
2026-04-30 14:59 40.73242 24.10547 4560 ft 144 kts 212°
2026-04-30 15:00 40.70666 24.08502 4560 ft 144 kts 212°
2026-04-30 15:00 40.69235 24.07371 4563 ft 144 kts 213°
2026-04-30 15:01 40.67166 24.07755 4571 ft 150 kts 122°
2026-04-30 15:01 40.66902 24.08614 4576 ft 150 kts 107°
2026-04-30 15:01 40.66354 24.11266 4567 ft 151 kts 104°
2026-04-30 15:02 40.66086 24.12607 4574 ft 151 kts 104°
2026-04-30 15:02 40.65826 24.13936 4572 ft 152 kts 103°
2026-04-30 15:03 40.65082 24.18008 4573 ft 152 kts 102°
2026-04-30 15:03 40.64603 24.20707 4569 ft 152 kts 102°
2026-04-30 15:04 40.64143 24.23415 4567 ft 151 kts 100°
2026-04-30 15:04 40.63582 24.27495 4568 ft 153 kts 99°
2026-04-30 15:05 40.63006 24.31643 4566 ft 153 kts 99°
2026-04-30 15:06 40.62625 24.34387 4566 ft 151 kts 99°
2026-04-30 15:06 40.62248 24.37084 4564 ft 150 kts 99°
2026-04-30 15:07 40.61871 24.39777 4567 ft 150 kts 99°
2026-04-30 15:07 40.61490 24.42468 4567 ft 149 kts 99°
2026-04-30 15:08 40.61107 24.45152 4563 ft 149 kts 99°
2026-04-30 15:08 40.60535 24.49144 4565 ft 148 kts 99°
2026-04-30 15:09 40.60152 24.51800 4566 ft 148 kts 99°
2026-04-30 15:09 40.59768 24.54451 4558 ft 147 kts 99°
2026-04-30 15:10 40.59381 24.57094 4562 ft 147 kts 99°
2026-04-30 15:11 40.58591 24.62389 4561 ft 148 kts 99°
2026-04-30 15:11 40.58192 24.65031 4566 ft 148 kts 99°
2026-04-30 15:12 40.57589 24.69014 4564 ft 147 kts 99°
2026-04-30 15:13 40.57188 24.71661 4574 ft 149 kts 99°
2026-04-30 15:14 40.56377 24.77002 4563 ft 147 kts 99°
2026-04-30 15:14 40.55767 24.80931 4563 ft 146 kts 99°
2026-04-30 15:16 40.57992 24.84263 4574 ft 143 kts 341°
2026-04-30 15:17 40.61753 24.82435 4507 ft 146 kts 341°
2026-04-30 15:18 40.66114 24.80147 3600 ft 140 kts 342°
2026-04-30 15:19 40.68823 24.78601 3075 ft 142 kts 341°